CAL0818 ZYTL-ZSNJ

Flight info

Callsign CAL0818
Flight time N/A
Altitude 37000
Route KAR09D KARPI W5 TAO W174 XDX DCT GURIL DCT RUXEL W178 OF OF71F
Aircraft B738/M-SDE2E3FGHIRWXY/LB1

Departure

Time 2026-04-30 05:48
Airport Dalian Zhoushuizi International Airport (ZYTL)

Arrival

Time N/A
Airport Nanjing Lukou International Airport (ZSNJ)
Time Latitude Longitude Altitude Speed Heading
2026-04-30 05:21 38.96225 121.53577 117 ft 0 kts 183°
2026-04-30 05:38 38.96226 121.53577 117 ft 1 kts 183°
2026-04-30 05:39 38.96241 121.53577 117 ft 2 kts 183°
2026-04-30 05:39 38.96257 121.53579 117 ft 2 kts 183°
2026-04-30 05:39 38.96273 121.53580 117 ft 2 kts 183°
2026-04-30 05:39 38.96288 121.53580 117 ft 2 kts 183°
2026-04-30 05:40 38.96304 121.53582 117 ft 2 kts 183°
2026-04-30 05:40 38.96319 121.53583 117 ft 2 kts 183°
2026-04-30 05:40 38.96334 121.53584 117 ft 2 kts 183°
2026-04-30 05:40 38.96350 121.53585 117 ft 2 kts 183°
2026-04-30 05:41 38.96365 121.53586 117 ft 2 kts 187°
2026-04-30 05:41 38.96376 121.53597 117 ft 2 kts 256°
2026-04-30 05:41 38.96376 121.53608 117 ft 1 kts 281°
2026-04-30 05:41 38.96376 121.53612 117 ft 0 kts 276°
2026-04-30 05:43 38.96377 121.53597 117 ft 3 kts 277°
2026-04-30 05:43 38.96380 121.53557 117 ft 5 kts 275°
2026-04-30 05:43 38.96386 121.53481 117 ft 11 kts 277°
2026-04-30 05:44 38.96397 121.53346 117 ft 17 kts 276°
2026-04-30 05:44 38.96412 121.53159 117 ft 22 kts 276°
2026-04-30 05:44 38.96430 121.52947 117 ft 23 kts 276°
2026-04-30 05:44 38.96447 121.52740 117 ft 17 kts 276°
2026-04-30 05:45 38.96461 121.52573 117 ft 18 kts 277°
2026-04-30 05:45 38.96476 121.52399 117 ft 19 kts 276°
2026-04-30 05:45 38.96489 121.52222 117 ft 20 kts 275°
2026-04-30 05:45 38.96511 121.52110 117 ft 7 kts 303°
2026-04-30 05:46 38.96534 121.52066 117 ft 3 kts 307°
2026-04-30 05:46 38.96556 121.52030 117 ft 7 kts 310°
2026-04-30 05:46 38.96602 121.51970 117 ft 8 kts 334°
2026-04-30 05:46 38.96647 121.51963 117 ft 4 kts
2026-04-30 05:47 38.96677 121.51972 117 ft 7 kts 20°
2026-04-30 05:47 38.96714 121.52050 117 ft 11 kts 92°
2026-04-30 05:47 38.96701 121.52216 117 ft 33 kts 96°
2026-04-30 05:47 38.96644 121.52913 117 ft 116 kts 96°
2026-04-30 05:48 38.96534 121.54268 159 ft 178 kts 95°
2026-04-30 05:48 38.96420 121.55962 837 ft 191 kts 95°
2026-04-30 05:48 38.96288 121.57711 1574 ft 204 kts 96°
2026-04-30 05:48 38.96131 121.59689 1981 ft 224 kts 96°
2026-04-30 05:49 38.95961 121.61868 2379 ft 247 kts 96°
2026-04-30 05:49 38.95784 121.64167 3008 ft 247 kts 96°
2026-04-30 05:49 38.95601 121.66503 3406 ft 262 kts 96°
2026-04-30 05:49 38.95421 121.68803 4681 ft 251 kts 96°
2026-04-30 05:50 38.95293 121.71103 5644 ft 253 kts 87°
2026-04-30 05:50 38.95806 121.73276 6574 ft 254 kts 54°
2026-04-30 05:50 38.97240 121.74713 7473 ft 256 kts 18°
2026-04-30 05:50 38.99044 121.74958 8373 ft 257 kts 359°
2026-04-30 05:51 39.00911 121.74957 9204 ft 262 kts
2026-04-30 05:51 39.02795 121.74674 9998 ft 267 kts 338°
2026-04-30 05:51 39.04300 121.73199 10684 ft 274 kts 306°
2026-04-30 05:51 39.05018 121.70754 10947 ft 298 kts 274°
2026-04-30 05:52 39.04926 121.67878 11391 ft 316 kts 266°
2026-04-30 05:52 39.04905 121.64835 11603 ft 340 kts 273°
2026-04-30 05:52 39.05083 121.61556 11838 ft 363 kts 275°
2026-04-30 05:52 39.05206 121.58108 12005 ft 384 kts 266°
2026-04-30 05:53 39.04435 121.54645 12354 ft 397 kts 240°
2026-04-30 05:53 39.02596 121.51891 13064 ft 400 kts 218°
2026-04-30 05:53 39.00048 121.50050 13599 ft 407 kts 203°
2026-04-30 05:53 38.97354 121.48617 14306 ft 410 kts 203°
2026-04-30 05:54 38.94647 121.47046 14852 ft 415 kts 205°
2026-04-30 05:54 38.91964 121.45399 15470 ft 419 kts 206°
2026-04-30 05:54 38.89225 121.43689 16039 ft 422 kts 206°
2026-04-30 05:54 38.86516 121.41983 16629 ft 425 kts 206°
2026-04-30 05:55 38.83795 121.40260 17136 ft 429 kts 207°
2026-04-30 05:55 38.81026 121.38502 17720 ft 431 kts 207°
2026-04-30 05:55 38.78239 121.36729 18190 ft 436 kts 207°
2026-04-30 05:55 38.75410 121.34930 18721 ft 438 kts 206°
2026-04-30 05:56 38.72572 121.33123 19199 ft 441 kts 206°
2026-04-30 05:56 38.69722 121.31310 19675 ft 444 kts 206°
2026-04-30 05:56 38.66873 121.29496 20122 ft 448 kts 206°
2026-04-30 05:56 38.63940 121.27631 20578 ft 450 kts 206°
2026-04-30 05:57 38.60956 121.25736 21010 ft 453 kts 206°
2026-04-30 05:57 38.58108 121.23744 21416 ft 456 kts 211°
2026-04-30 05:57 38.55405 121.21419 21810 ft 459 kts 218°
2026-04-30 05:57 38.52987 121.18600 22183 ft 461 kts 227°
2026-04-30 05:58 38.50905 121.15407 22575 ft 463 kts 232°
2026-04-30 05:58 38.48887 121.11999 22925 ft 466 kts 233°
2026-04-30 05:58 38.46856 121.08565 23270 ft 469 kts 233°
2026-04-30 05:58 38.44843 121.05170 23615 ft 471 kts 233°
2026-04-30 05:59 38.42779 121.01686 23939 ft 473 kts 233°
2026-04-30 05:59 38.40734 120.98231 24269 ft 475 kts 233°
2026-04-30 05:59 38.38674 120.94746 24569 ft 478 kts 233°
2026-04-30 05:59 38.36561 120.91175 24886 ft 480 kts 233°
2026-04-30 06:00 38.34466 120.87634 25206 ft 481 kts 233°
2026-04-30 06:00 38.32356 120.84072 25551 ft 482 kts 233°
2026-04-30 06:00 38.30328 120.80648 25896 ft 482 kts 233°
2026-04-30 06:00 38.28183 120.77232 26240 ft 482 kts 228°
2026-04-30 06:01 38.25729 120.74049 26623 ft 481 kts 224°
2026-04-30 06:01 38.23093 120.71166 26964 ft 481 kts 217°
2026-04-30 06:01 38.20114 120.68813 27341 ft 480 kts 208°
2026-04-30 06:01 38.17036 120.66843 27710 ft 480 kts 206°
2026-04-30 06:02 38.13937 120.64902 28052 ft 479 kts 206°
2026-04-30 06:02 38.10873 120.62970 28398 ft 479 kts 207°
2026-04-30 06:02 38.07801 120.61041 28739 ft 478 kts 206°
2026-04-30 06:02 38.04668 120.59247 29078 ft 477 kts 202°
2026-04-30 06:03 38.01465 120.57857 29408 ft 477 kts 195°
2026-04-30 06:03 37.98192 120.57075 29732 ft 476 kts 187°
2026-04-30 06:03 37.94893 120.56746 30064 ft 475 kts 184°
2026-04-30 06:03 37.91546 120.56493 30373 ft 474 kts 184°
2026-04-30 06:04 37.88243 120.56226 30683 ft 474 kts 184°
2026-04-30 06:04 37.84925 120.55960 30987 ft 473 kts 184°
2026-04-30 06:04 37.81607 120.55701 31288 ft 472 kts 184°
2026-04-30 06:05 37.74825 120.55178 31883 ft 471 kts 184°
2026-04-30 06:05 37.71507 120.54926 32171 ft 471 kts 184°
2026-04-30 06:05 37.68184 120.54674 32455 ft 470 kts 184°
2026-04-30 06:05 37.64878 120.54415 32732 ft 469 kts 185°
2026-04-30 06:06 37.61554 120.53990 33007 ft 469 kts 187°
2026-04-30 06:06 37.58269 120.53461 33276 ft 468 kts 188°
2026-04-30 06:06 37.54952 120.52936 33541 ft 468 kts 187°
2026-04-30 06:06 37.51656 120.52430 33802 ft 467 kts 187°
2026-04-30 06:07 37.48333 120.51924 34058 ft 466 kts 187°
2026-04-30 06:07 37.45032 120.51424 34311 ft 466 kts 187°
2026-04-30 06:07 37.41695 120.50922 34563 ft 465 kts 187°
2026-04-30 06:07 37.38363 120.50421 34816 ft 465 kts 187°
2026-04-30 06:08 37.35041 120.49924 35067 ft 464 kts 187°
2026-04-30 06:08 37.31726 120.49429 35314 ft 464 kts 187°
2026-04-30 06:08 37.28403 120.48934 35546 ft 463 kts 187°
2026-04-30 06:08 37.25081 120.48440 35770 ft 463 kts 187°
2026-04-30 06:09 37.21763 120.47948 35990 ft 462 kts 187°
2026-04-30 06:09 37.18477 120.47462 36101 ft 463 kts 187°
2026-04-30 06:09 37.15180 120.46975 36100 ft 462 kts 187°
2026-04-30 06:10 37.08627 120.45998 36100 ft 456 kts 187°
2026-04-30 06:10 37.02166 120.45036 36100 ft 456 kts 187°
2026-04-30 06:11 36.95806 120.44105 36100 ft 457 kts 187°
2026-04-30 06:11 36.89339 120.43156 36100 ft 457 kts 187°
2026-04-30 06:12 36.82953 120.42220 36100 ft 457 kts 187°
2026-04-30 06:12 36.77448 120.41413 36100 ft 457 kts 187°
2026-04-30 06:13 36.71072 120.40480 36100 ft 457 kts 187°
2026-04-30 06:13 36.64540 120.39525 36100 ft 457 kts 187°
2026-04-30 06:14 36.58060 120.38579 36100 ft 457 kts 187°
2026-04-30 06:14 36.51647 120.37691 36099 ft 457 kts 185°
2026-04-30 06:15 36.45153 120.37466 36100 ft 457 kts 181°
2026-04-30 06:15 36.38694 120.37283 36100 ft 457 kts 182°
2026-04-30 06:16 36.32108 120.37056 36100 ft 457 kts 183°
2026-04-30 06:16 36.25641 120.36053 36100 ft 457 kts 192°
2026-04-30 06:17 36.19352 120.34451 36100 ft 457 kts 191°
2026-04-30 06:17 36.12970 120.32833 36099 ft 457 kts 192°
2026-04-30 06:18 36.06604 120.31213 36100 ft 457 kts 191°
2026-04-30 06:18 36.00317 120.29382 36098 ft 457 kts 198°
2026-04-30 06:18 35.97344 120.27873 36096 ft 456 kts 209°
2026-04-30 06:19 35.94671 120.25639 36103 ft 456 kts 218°
2026-04-30 06:19 35.89631 120.20502 36100 ft 457 kts 219°
2026-04-30 06:20 35.84628 120.15430 36099 ft 457 kts 219°
2026-04-30 06:20 35.79608 120.10333 36099 ft 457 kts 219°
2026-04-30 06:21 35.74673 120.05321 36100 ft 457 kts 219°
2026-04-30 06:21 35.69660 120.00236 36099 ft 457 kts 219°
2026-04-30 06:22 35.64638 119.95145 36100 ft 457 kts 219°
2026-04-30 06:22 35.59683 119.90127 36099 ft 457 kts 219°
2026-04-30 06:23 35.54700 119.85092 36100 ft 457 kts 219°
2026-04-30 06:23 35.49714 119.80060 36100 ft 457 kts 219°
2026-04-30 06:24 35.44711 119.75019 36099 ft 457 kts 219°
2026-04-30 06:24 35.39749 119.69965 36100 ft 457 kts 220°
2026-04-30 06:25 35.34763 119.64860 36100 ft 457 kts 220°
2026-04-30 06:25 35.29815 119.59805 36099 ft 457 kts 220°
2026-04-30 06:26 35.24831 119.54722 36100 ft 457 kts 220°
2026-04-30 06:26 35.19902 119.49705 36100 ft 457 kts 220°
2026-04-30 06:27 35.14907 119.44633 36100 ft 457 kts 220°
2026-04-30 06:27 35.09930 119.39586 36100 ft 457 kts 220°
2026-04-30 06:28 35.04973 119.34565 36100 ft 457 kts 219°
2026-04-30 06:28 35.00039 119.29579 36099 ft 457 kts 219°
2026-04-30 06:29 34.95093 119.24590 36099 ft 457 kts 219°
2026-04-30 06:29 34.90124 119.19583 36099 ft 457 kts 219°
2026-04-30 06:30 34.85148 119.14578 36099 ft 457 kts 219°
2026-04-30 06:30 34.80245 119.09656 36100 ft 457 kts 219°
2026-04-30 06:31 34.75232 119.04630 36100 ft 457 kts 219°
2026-04-30 06:31 34.70181 118.99573 36100 ft 457 kts 219°
2026-04-30 06:32 34.65141 118.94538 36100 ft 457 kts 219°
2026-04-30 06:32 34.59852 118.90074 36098 ft 456 kts 206°
2026-04-30 06:33 34.53809 118.87734 36102 ft 456 kts 189°
2026-04-30 06:33 34.47468 118.86718 36100 ft 457 kts 188°
2026-04-30 06:34 34.41132 118.85680 36099 ft 457 kts 188°
2026-04-30 06:34 34.34781 118.84647 36099 ft 457 kts 188°
2026-04-30 06:35 34.28371 118.83609 36100 ft 457 kts 188°
2026-04-30 06:35 34.22047 118.82587 36099 ft 457 kts 188°
2026-04-30 06:36 34.15687 118.81562 36100 ft 457 kts 188°
2026-04-30 06:36 34.09326 118.80537 36099 ft 457 kts 188°
2026-04-30 06:37 34.02938 118.79515 36100 ft 457 kts 188°
2026-04-30 06:37 33.96517 118.78490 36100 ft 457 kts 188°
2026-04-30 06:38 33.90161 118.77480 36099 ft 457 kts 188°
2026-04-30 06:38 33.83823 118.76470 36100 ft 457 kts 188°
2026-04-30 06:39 33.77470 118.75450 36099 ft 457 kts 188°
2026-04-30 06:39 33.71066 118.74422 36100 ft 457 kts 188°
2026-04-30 06:40 33.64589 118.73384 36099 ft 457 kts 188°
2026-04-30 06:40 33.58207 118.72365 36099 ft 457 kts 188°
2026-04-30 06:41 33.51814 118.71346 36100 ft 457 kts 188°
2026-04-30 06:41 33.45463 118.70335 36100 ft 457 kts 188°
2026-04-30 06:42 33.39179 118.69329 36100 ft 457 kts 188°
2026-04-30 06:42 33.32804 118.68309 36100 ft 457 kts 188°
2026-04-30 06:43 33.26478 118.67299 36100 ft 457 kts 188°
2026-04-30 06:43 33.20158 118.66293 36100 ft 457 kts 188°
2026-04-30 06:44 33.13822 118.65270 36100 ft 457 kts 188°
2026-04-30 06:44 33.07509 118.64252 36100 ft 457 kts 188°
2026-04-30 06:45 33.01196 118.63236 36100 ft 457 kts 188°
2026-04-30 06:45 32.94836 118.62213 36100 ft 457 kts 188°
2026-04-30 06:46 32.88531 118.61201 36100 ft 457 kts 188°
2026-04-30 06:46 32.82153 118.60181 36099 ft 457 kts 188°
2026-04-30 06:47 32.75820 118.59168 36099 ft 457 kts 188°
2026-04-30 06:47 32.69480 118.58155 36099 ft 457 kts 188°
2026-04-30 06:48 32.63048 118.56857 35631 ft 453 kts 193°
2026-04-30 06:48 32.59919 118.55995 34885 ft 451 kts 193°
2026-04-30 06:48 32.56864 118.55176 34186 ft 450 kts 192°
2026-04-30 06:48 32.53782 118.54479 33404 ft 449 kts 188°
2026-04-30 06:49 32.50637 118.54221 32582 ft 449 kts 180°
2026-04-30 06:49 32.47490 118.54344 31754 ft 450 kts 176°
2026-04-30 06:49 32.44412 118.54776 30873 ft 451 kts 171°
2026-04-30 06:49 32.41283 118.55428 29960 ft 452 kts 170°
2026-04-30 06:50 32.38164 118.56098 28998 ft 454 kts 170°
2026-04-30 06:50 32.35046 118.56767 28008 ft 455 kts 170°
2026-04-30 06:50 32.31921 118.57443 26979 ft 457 kts 170°
2026-04-30 06:50 32.28744 118.58137 25888 ft 459 kts 169°
2026-04-30 06:51 32.25545 118.58841 24790 ft 460 kts 169°
2026-04-30 06:51 32.22402 118.59535 23811 ft 458 kts 169°
2026-04-30 06:51 32.19247 118.60234 22883 ft 454 kts 169°
2026-04-30 06:51 32.16137 118.60925 21983 ft 449 kts 169°
2026-04-30 06:52 32.13032 118.61614 21105 ft 444 kts 169°
2026-04-30 06:52 32.09970 118.62287 20237 ft 438 kts 169°
2026-04-30 06:52 32.06947 118.62946 19379 ft 433 kts 169°
2026-04-30 06:52 32.03928 118.63605 18642 ft 424 kts 169°
2026-04-30 06:53 32.01039 118.64237 18310 ft 407 kts 169°
2026-04-30 06:53 31.98316 118.64836 17973 ft 392 kts 169°
2026-04-30 06:53 31.95643 118.65424 17802 ft 374 kts 169°
2026-04-30 06:53 31.93092 118.65987 17643 ft 358 kts 169°
2026-04-30 06:54 31.90607 118.66535 17497 ft 342 kts 169°
2026-04-30 06:54 31.88302 118.67044 17397 ft 327 kts 169°
2026-04-30 06:54 31.86043 118.67542 17240 ft 315 kts 169°
2026-04-30 06:54 31.83874 118.68021 16917 ft 309 kts 169°
2026-04-30 06:55 31.81732 118.68493 16545 ft 306 kts 169°
2026-04-30 06:55 31.79622 118.68960 16348 ft 296 kts 170°
2026-04-30 06:55 31.77546 118.69134 15991 ft 293 kts 188°
2026-04-30 06:55 31.75642 118.68293 15491 ft 294 kts 218°
2026-04-30 06:56 31.74293 118.66413 14880 ft 299 kts 241°
2026-04-30 06:56 31.73220 118.64251 14245 ft 305 kts 238°
2026-04-30 06:56 31.72033 118.62102 13587 ft 311 kts 237°
2026-04-30 06:56 31.70822 118.59888 12885 ft 318 kts 238°
2026-04-30 06:57 31.69501 118.57717 12194 ft 322 kts 226°
2026-04-30 06:57 31.67594 118.56246 11505 ft 318 kts 198°
2026-04-30 06:57 31.65364 118.56042 10865 ft 312 kts 169°
2026-04-30 06:57 31.63311 118.56973 10447 ft 300 kts 150°
2026-04-30 06:58 31.61666 118.58488 10038 ft 289 kts 127°
2026-04-30 06:58 31.60875 118.60653 9595 ft 281 kts 96°
2026-04-30 06:58 31.61115 118.62990 8811 ft 287 kts 70°
2026-04-30 06:58 31.61895 118.65293 7882 ft 297 kts 69°
2026-04-30 06:59 31.62628 118.67641 6937 ft 304 kts 70°
2026-04-30 06:59 31.63464 118.70020 5878 ft 313 kts 62°
2026-04-30 06:59 31.64626 118.72260 5062 ft 306 kts 58°
2026-04-30 06:59 31.65791 118.74434 4335 ft 298 kts 58°
2026-04-30 07:00 31.66890 118.76508 3631 ft 282 kts 58°
2026-04-30 07:00 31.67923 118.78426 2988 ft 251 kts 58°
2026-04-30 07:00 31.68828 118.80096 2360 ft 218 kts 58°
2026-04-30 07:00 31.69616 118.81573 1766 ft 196 kts 58°
2026-04-30 07:01 31.70309 118.82867 1500 ft 167 kts 58°
2026-04-30 07:01 31.70845 118.83868 1142 ft 157 kts 58°
2026-04-30 07:01 38.97235 121.45771 1049 ft 160 kts 96°
2026-04-30 07:02 38.97120 121.47185 961 ft 148 kts 97°
2026-04-30 07:02 38.97010 121.48479 741 ft 137 kts 96°
2026-04-30 07:02 38.96907 121.49712 552 ft 133 kts 96°
2026-04-30 07:02 38.96808 121.50905 351 ft 128 kts 95°
2026-04-30 07:03 38.96715 121.52047 179 ft 127 kts 96°
2026-04-30 07:03 38.96627 121.53116 118 ft 105 kts 96°